Wind_Speed
22 21 21 23 21 16 17 17 18 18 22 25 23 24 23 23 25 27 26 26 24 22 21 20 18 17 19 19 18 21 20 21 21
21 22 20 19 18 19 17 18 19 22 24 26 25 23 22 20 21 23 23 24 21 21 19 19 15 15 16 14 15 17 18 17 19
20 20 19 20 20 19 17 18 19 19 20 22 23 22 21 19 19 18 20 23 23 19 17 17 12 15 16 14 13 13 13 16 17
21 21 20 21 23 20 17 16 17 17 16 18 23 22 18 16 19 19 21 22 19 18 14 14 13 15 15 14 14 14 12 14 15
22 24 23 24 24 20 15 16 17 17 20 18 18 16 15 17 25 22 20 21 19 16 16 16 15 12 15 15 13 14 16 15 15
27 27 25 26 22 18 17 16 16 16 16 17 13 13 14 21 27 22 19 16 16 17 18 14 16 15 16 17 17 17 16 16 14
29 27 26 25 20 16 18 16 15 15 14 14 13 13 14 22 24 20 20 17 16 18 18 15 13 15 17 18 19 17 18 17 16
30 30 30 29 25 22 22 19 13 12 12 12 13 17 20 20 24 17 17 17 16 13 13 13 13 14 14 16 17 18 18 16 17
30 29 30 27 25 24 21 20 15 13 12 10 12 16 20 19 19 13 13 17 17 15 12 12 11 11 12 13 16 17 16 15 14
28 26 27 28 27 23 20 18 17 16 13 11 11 15 22 21 18 17 16 13 12 13 14 11 9 9 10 9 9 14 15 15 14
29 26 30 29 26 21 20 22 19 17 13 11 9 17 20 16 13 12 13 10 16 14 12 11 11 12 10 8 8 7 7 12 12
26 34 31 28 26 24 21 21 20 17 13 10 17 19 17 13 11 13 15 18 16 14 11 14 11 12 9 8 5 4 5 6 9
29 33 29 28 26 24 22 20 19 16 14 17 18 16 15 15 15 16 16 15 13 12 14 15 14 15 12 11 9 7 7 6 4
30 31 29 28 26 22 21 22 19 18 17 16 17 17 17 16 15 15 16 16 15 16 16 17 17 16 15 14 13 12 11 12 11
29 30 28 29 26 22 21 21 20 21 20 23 22 19 17 17 18 17 18 18 17 17 17 17 16 15 14 14 14 14 12 13 12
32 31 30 30 29 25 21 23 27 27 27 28 22 18 14 13 14 15 15 16 15 15 15 14 14 14 14 14 13 13 13 11 8
35 33 30 33 32 26 24 28 31 28 26 28 26 15 14 11 11 11 11 12 12 12 12 12 11 11 11 12 12 11 12 11 10
37 35 32 34 33 29 26 29 30 31 27 24 11 14 8 16 11 10 9 9 8 9 9 10 9 9 9 10 9 9 9 10 9
37 38 35 34 32 30 29 30 29 30 29 23 17 7 22 8 11 11 10 8 6 6 6 6 7 8 8 9 8 7 7 8 8
36 38 38 35 33 31 31 32 29 28 29 22 14 15 15 12 17 16 12 8 6 6 4 3 3 5 6 6 7 7 7 7 7
Wind_Direction
140 133 133 130 129 125 120 121 119 119 118 107 107 105 108 107 104 98 94 96 100 93 98 88 80 73 80 81 82 82 77 77 76
140 135 135 135 127 126 124 119 118 118 120 115 114 117 113 108 109 106 96 104 100 99 98 86 72 69 72 83 83 81 79 84 84
147 146 143 139 132 129 126 123 120 122 118 126 123 117 111 112 109 108 107 115 95 100 87 75 71 59 63 70 87 81 76 76 78
156 152 149 145 137 132 124 124 124 124 119 135 151 126 119 130 118 103 106 113 103 101 88 87 61 62 63 69 71 80 77 68 72
153 153 152 146 134 129 125 125 125 124 111 114 159 154 138 129 121 106 109 118 103 113 97 81 69 60 58 62 75 76 78 74 73
156 155 151 149 142 129 121 123 121 117 105 89 127 163 125 122 124 109 114 118 110 120 97 86 72 62 61 62 66 80 77 73 75
155 153 153 145 143 135 129 129 121 121 109 94 96 122 123 122 124 120 124 117 115 120 103 95 82 64 61 64 62 68 71 73 66
153 153 154 157 154 145 141 146 135 125 116 104 92 111 111 102 133 123 118 115 112 126 123 103 98 86 67 57 62 66 67 73 68
153 153 152 156 155 155 153 155 149 137 126 104 96 110 110 111 115 109 115 124 117 118 129 127 106 87 83 64 51 56 53 62 65
159 165 157 161 162 165 162 161 153 142 132 112 115 125 126 121 117 114 105 105 112 105 116 126 120 111 96 79 58 46 47 52 56
169 165 160 158 159 162 158 155 156 145 141 129 126 132 144 128 118 108 127 125 100 96 96 102 133 126 110 96 86 75 72 55 44
164 155 153 157 157 158 161 157 154 152 153 139 127 124 124 126 120 112 96 105 109 116 107 97 86 122 119 100 86 108 76 67 56
169 162 155 159 162 166 166 171 165 165 157 134 129 120 118 120 114 106 100 105 103 93 85 80 82 85 78 69 65 68 55 49 46
172 164 163 167 173 172 170 173 176 165 152 137 129 120 106 101 110 105 99 97 96 87 82 79 76 74 71 66 65 67 73 63 57
173 169 171 174 177 176 169 168 166 156 144 132 124 116 110 101 100 101 100 97 93 89 83 80 76 72 67 62 61 61 61 63 72
180 180 182 181 180 178 172 163 153 147 147 139 132 126 119 115 106 104 102 98 93 89 84 79 74 69 65 61 56 57 56 60 65
187 185 186 180 181 183 180 169 159 155 157 148 137 136 144 143 132 121 110 102 95 88 83 79 74 69 64 60 54 50 51 54 56
197 193 189 185 188 187 184 177 171 163 164 160 152 148 167 159 157 145 132 115 102 89 81 76 74 70 63 58 53 47 42 39 44
196 196 194 192 195 192 184 181 176 171 167 168 164 181 164 160 164 166 155 137 121 101 81 66 67 67 63 56 49 42 36 31 25
200 197 197 198 198 196 188 183 180 177 172 175 168 159 161 162 160 163 166 148 142 120 93 54 62 71 70 58 47 36 29 23 18
Height
1553 1555 1557 1558 1560 1562 1563 1565 1566 1567 1569 1570 1571 1572 1574 1573 1573 1573 1574 1574 1575 1575 1574 1574 1574 1573 1572 1572 1571 1570 1569 1568 1567
1554 1557 1559 1560 1562 1564 1565 1567 1568 1569 1570 1572 1574 1576 1577 1577 1576 1575 1576 1577 1578 1578 1577 1577 1576 1576 1575 1574 1573 1572 1571 1570 1569
1556 1558 1561 1562 1564 1565 1566 1568 1570 1571 1572 1575 1576 1578 1578 1578 1578 1578 1579 1580 1581 1581 1580 1580 1580 1579 1577 1576 1575 1574 1573 1572 1571
1557 1559 1562 1564 1565 1567 1568 1570 1572 1573 1573 1574 1577 1578 1579 1579 1580 1581 1582 1583 1584 1584 1584 1583 1582 1581 1580 1578 1577 1576 1576 1575 1574
1557 1560 1563 1565 1567 1568 1570 1572 1573 1574 1575 1576 1578 1579 1579 1580 1582 1583 1585 1586 1586 1586 1586 1585 1584 1584 1582 1581 1579 1578 1578 1577 1576
1558 1561 1564 1567 1569 1571 1572 1573 1574 1575 1577 1578 1578 1580 1580 1581 1584 1586 1588 1588 1588 1589 1589 1588 1587 1586 1585 1583 1582 1581 1580 1580 1578
1558 1563 1566 1569 1572 1574 1575 1574 1575 1577 1578 1579 1580 1581 1581 1582 1585 1587 1588 1590 1590 1591 1591 1591 1591 1590 1588 1587 1585 1583 1583 1582 1581
1559 1562 1565 1569 1572 1575 1577 1576 1577 1579 1580 1581 1582 1583 1583 1585 1586 1588 1590 1591 1592 1593 1594 1593 1594 1593 1592 1590 1588 1587 1585 1585 1584
1559 1563 1566 1570 1573 1575 1577 1578 1579 1581 1582 1583 1584 1585 1586 1588 1589 1590 1590 1591 1592 1594 1595 1595 1596 1595 1595 1594 1592 1591 1589 1588 1586
1559 1563 1567 1570 1573 1575 1577 1578 1580 1582 1583 1585 1586 1587 1589 1590 1591 1592 1593 1594 1593 1594 1595 1596 1597 1598 1598 1597 1595 1594 1592 1590 1589
1559 1562 1566 1570 1573 1575 1577 1579 1581 1583 1585 1586 1588 1588 1590 1592 1592 1593 1594 1595 1595 1596 1596 1596 1596 1597 1599 1598 1597 1596 1594 1594 1591
1560 1563 1566 1570 1573 1575 1578 1580 1582 1584 1586 1588 1589 1590 1592 1593 1594 1595 1595 1596 1597 1598 1598 1598 1597 1597 1598 1599 1598 1596 1596 1595 1594
1560 1563 1567 1570 1573 1576 1578 1579 1582 1585 1587 1588 1590 1592 1593 1595 1596 1597 1597 1598 1599 1599 1599 1599 1599 1599 1599 1599 1599 1598 1597 1596 1595
1559 1563 1566 1570 1572 1575 1578 1580 1582 1585 1588 1590 1591 1594 1595 1596 1597 1599 1599 1600 1601 1601 1602 1602 1601 1601 1601 1601 1601 1600 1599 1598 1597
1558 1562 1566 1569 1572 1575 1577 1580 1583 1585 1588 1590 1593 1595 1597 1599 1600 1601 1601 1603 1603 1603 1604 1604 1604 1604 1603 1603 1603 1602 1601 1600 1600
1556 1560 1564 1567 1570 1573 1577 1579 1582 1585 1588 1589 1593 1597 1599 1601 1602 1603 1604 1604 1605 1605 1605 1606 1606 1606 1605 1605 1605 1604 1603 1602 1602
1554 1558 1562 1565 1569 1572 1576 1578 1580 1584 1588 1588 1592 1596 1601 1601 1603 1604 1604 1605 1606 1607 1607 1607 1607 1607 1607 1606 1606 1606 1605 1604 1603
1551 1556 1560 1564 1567 1570 1574 1577 1579 1581 1586 1589 1591 1594 1596 1599 1602 1603 1605 1605 1606 1607 1608 1608 1608 1608 1608 1607 1607 1607 1606 1605 1605
1548 1553 1558 1562 1566 1569 1572 1576 1579 1581 1583 1587 1589 1591 1593 1595 1600 1603 1604 1605 1606 1607 1608 1608 1608 1608 1608 1608 1608 1608 1607 1606 1605
1545 1549 1554 1558 1563 1567 1571 1574 1578 1581 1583 1586 1588 1590 1594 1595 1596 1600 1602 1604 1605 1606 1607 1608 1608 1608 1608 1608 1608 1608 1607 1606 1605